Location: Marse
(42.1502°N, 110.9866°W)
Time: 09:56:02
(UTC+00:00)

ITUPSAT 1 - Pass Details

Date: 04 July 2022
Orbit: 701 x 711 km, 98.6° (Epoch: 13 August)

Event Time Altitude Azimuth Distance (km) Brightness Sun altitude
Rises 04:57:12 0° 360° (N) 3,111 ? -16.2°
Reaches altitude 10° 04:59:52 10° 346° (NNW) 2,189 ? -16.5°
Maximum altitude 05:03:32 22° 296° (WNW) 1,511 ? -16.9°
Drops below altitude 10° 05:07:12 10° 245° (WSW) 2,182 ? -17.3°
Sets 05:09:52 0° 231° (SW) 3,098 ? -17.5°
